Weather observations for the past three days for
San Juan, Luis Munoz Marin International Airport
Imperial (Metric)
Date Time (ast) Wind (mph) Vis. (mi.) Weather Sky Cond. Temperature (ºF) Relative Humidity Wind Chill (°F) Heat Index (°F) Pressure Precipitation (in)
Air Dwpt 6 hour altimeter (in) sea level (mb) 1 hr 3 hr 6 hr
Max. Min.
22 16:56 E 9 10.00 Partly Cloudy FEW028 SCT036 SCT070 86 73.9 67% 94 29.96 1014.3
22 15:56 E 13 10.00 Partly Cloudy FEW028 SCT036 SCT070 87.8 77 70% 100 29.94 0.0
22 14:56 E 14 10.00 Partly Cloudy SCT034 SCT060 SCT120 87.1 77 72% 99 29.95 1014.2
22 13:56 E 17 G 28 10.00 Mostly Cloudy SCT034CB SCT060 BKN120 87.8 75.2 66% 98 29.98 0.0
22 12:56 E 18 G 28 10.00 Mostly Cloudy FEW032CB SCT055 BKN095 89.6 77 67% 103 29.98 0.0
22 11:56 E 17 10.00 Mostly Cloudy SCT036 SCT085 BKN110 90 77 66% 103 30 1015.7
22 10:56 E 14 10.00 Mostly Cloudy SCT029 BKN100 87.8 75.2 66% 98 30 0.0
22 09:56 E 10 10.00 Mostly Cloudy SCT023 BKN055 BKN075 86 78.1 77% 98 30 1015.8 0.08
22 08:56 E 8 10.00 Mostly Cloudy SCT023 BKN042 BKN120 86 77 75% 97 30 1015.7
22 07:56 SE 5 10.00 Partly Cloudy FEW030 SCT085 SCT120 84.2 77 79% 94 29.99 0.0
22 06:56 SE 5 10.00 Partly Cloudy FEW033 SCT060 SCT100 82.4 75.2 79% 89 29.98 0.0
22 05:56 SE 3 10.00 Partly Cloudy FEW025 SCT055 80.6 75.2 84% 86 29.98 0.0
22 04:56 Calm 10.00 Partly Cloudy FEW022 SCT035 80.6 75.2 84% 86 29.97 0.0
22 03:56 Calm 10.00 Partly Cloudy SCT027 82.4 75.2 79% 89 29.97 0.0
22 02:56 S 3 10.00 A Few Clouds FEW022 82.4 75.2 79% 89 29.97 0.0
22 01:56 Calm 10.00 A Few Clouds FEW022 82.4 75.2 79% 89 29.98 0.0
22 00:56 Calm 10.00 A Few Clouds FEW025 82.9 75.9 79% 91 30 1015.7
21 23:56 SE 3 10.00 A Few Clouds FEW022 FEW045 82.4 77 84% 91 30.02 0.0
21 22:56 SE 3 10.00 A Few Clouds FEW026 FEW040 82.9 77 82% 92 30.02 1016.5
21 21:56 E 7 10.00 A Few Clouds FEW026 FEW040 84.2 77 79% 94 30.01 0.0
21 20:56 SE 5 10.00 Partly Cloudy FEW026 SCT043 84.2 77 79% 94 30 0.0
21 19:56 E 6 10.00 Partly Cloudy FEW026 SCT047 82.4 75.2 79% 89 30 0.0
21 18:56 E 8 10.00 Partly Cloudy SCT026 SCT045 84.9 73 68% 92 29.98 1015.2
21 17:56 E 10 10.00 Partly Cloudy SCT026 SCT055 86 75.2 70% 95 29.97 0.0
21 16:56 E 18 G 28 10.00 Partly Cloudy SCT026 SCT048 88 75.9 68% 99 29.97 1014.6
21 15:56 E 15 10.00 Partly Cloudy SCT026 SCT048 88 77 70% 100 29.96 1014.5
21 14:56 E 15 10.00 Light Rain FEW024 SCT039 SCT047 86 77 75% 97 29.99 0.0
21 13:56 E 10 10.00 Mostly Cloudy FEW024 SCT032 BKN050 87.1 78.1 90 84.9 75% 100 29.99 1015.4
21 12:56 NE 16 G 25 10.00 Partly Cloudy FEW028 SCT032 SCT065 89.6 77 67% 103 30 0.0
21 11:56 E 18 10.00 Partly Cloudy FEW025 SCT032 SCT070 90 77 66% 103 30.01 1016.0
21 10:56 NE 18 G 24 10.00 Partly Cloudy SCT030 SCT075 87.8 77 70% 100 30.01 0.0
21 09:56 E 15 10.00 Partly Cloudy FEW025 SCT034 SCT042 88 75.9 68% 99 30.01 1016.2
21 08:56 E 13 10.00 Partly Cloudy FEW025 SCT034 SCT042 87.1 77 72% 99 30.01 1016.0
21 07:56 SE 5 10.00 Partly Cloudy FEW031 SCT080 84.9 77 84.9 80.1 77% 95 30 1015.8 0.07
21 06:56 SE 3 10.00 Partly Cloudy FEW025 SCT075 82.4 75.2 79% 89 29.99 0.0
21 05:56 Calm 10.00 Partly Cloudy FEW025 SCT035 80.6 75.2 84% 86 29.97 0.0
21 04:56 Calm 10.00 Partly Cloudy FEW022 SCT030 80.6 75.2 84% 86 29.96 0.0
21 03:56 Calm 10.00 A Few Clouds FEW018 81 77 88% 88 29.96 1014.5
21 02:56 SE 3 10.00 A Few Clouds FEW025 80.6 75.2 84% 86 29.97 0.0
21 01:56 Calm 10.00 A Few Clouds FEW025 82.9 75.9 84.9 82.9 79% 91 29.97 1014.9
21 00:56 E 6 10.00 A Few Clouds FEW025 82.4 75.2 79% 89 29.99 0.0
20 23:56 E 12 10.00 A Few Clouds FEW025 84 75 74% 92 30.01 1016.1
20 22:56 E 12 10.00 Partly Cloudy SCT025 84.2 75.2 74% 92 30.02 0.0
20 21:56 E 12 10.00 A Few Clouds FEW027 84 77 80% 94 30.03 1016.6
20 20:56 E 13 G 24 10.00 Partly Cloudy SCT029 84.2 75.2 74% 92 30.02 0.0
20 19:56 E 13 10.00 Partly Cloudy SCT029 SCT100 84.2 75.2 74% 92 30.02 0.0
20 18:56 E 12 10.00 Partly Cloudy SCT027 SCT130 84.9 77 77% 95 30 1015.9
20 17:56 E 12 10.00 Partly Cloudy FEW023 SCT040 SCT120 84.2 78.8 84% 96 29.99 0.0
20 16:56 E 14 G 24 10.00 Partly Cloudy FEW025 SCT037 SCT120 86 77 75% 97 29.99 1015.4 0.01
20 15:56 E 15 10.00 Partly Cloudy FEW024 SCT037 SCT120 87.8 77 70% 100 29.99 0.0
20 14:56 E 14 G 24 9.00 Light Rain FEW024 SCT037 SCT120 84.2 78.8 84% 96 30 0.0
20 13:56 E 20 G 26 10.00 Mostly Cloudy SCT035 SCT050 BKN090 89.6 75.2 63% 100 30.01 0.0
20 12:56 E 17 G 25 10.00 Mostly Cloudy FEW030 SCT045 BKN090 89.6 77 67% 103 30.02 0.0
20 11:56 SE 9 G 25 10.00 Partly Cloudy SCT035 SCT050 SCT100 86 77 75% 97 30.03 0.0
20 10:56 E 15 10.00 Partly Cloudy SCT030 SCT050 SCT090 89.6 75.2 63% 100 30.03 0.0
20 09:56 E 17 G 25 10.00 Partly Cloudy FEW030 SCT090 90 75.9 63% 102 30.02 1016.5
20 08:56 E 14 10.00 Mostly Cloudy FEW028 SCT065 BKN100 87.8 78.8 75% 102 30.01 0.0
20 07:56 E 12 10.00 Mostly Cloudy FEW028 SCT065 BKN100 84.9 77 84.9 81 77% 95 29.99 1015.5 0.01
20 05:56 SE 6 10.00 Mostly Cloudy SCT023 BKN100 82.4 77 84% 91 29.96 0.0
20 04:56 SE 3 10.00 Partly Cloudy FEW025 SCT100 82.4 77 84% 91 29.95 0.0
20 03:56 E 8 10.00 A Few Clouds FEW025 FEW100 82.4 77 84% 91 29.94 0.0
20 02:56 E 6 10.00 A Few Clouds FEW028 FEW100 82.4 78.8 89% 92 29.94 0.0
20 01:56 SE 5 10.00 Partly Cloudy SCT022 82 77 84.9 81 85% 90 29.95 1014.2
20 00:56 SE 5 10.00 Mostly Cloudy SCT023 BKN090 82 77 85% 90 29.98 1015.1
19 23:56 SE 5 10.00 Light Rain FEW023 SCT090 82.9 75.9 79% 91 30.01 1016.1
19 22:56 E 12 G 17 10.00 Light Rain FEW023 SCT031 BKN090 82.4 77 84% 91 30.02 0.0
19 21:56 E 5 10.00 A Few Clouds FEW040 FEW100 84 77 80% 94 30.01 1015.9
19 20:56 SE 5 10.00 A Few Clouds FEW040 FEW100 84 75.9 77% 93 29.99 1015.4
19 19:56 E 6 10.00 Partly Cloudy FEW023 SCT040 SCT100 84.9 78.1 90 82 80% 97 29.96 1014.4 0.11
19 18:56 E 8 10.00 Overcast SCT027 SCT044 OVC110 84.2 75.2 74% 92 29.96 0.0
19 17:56 E 7 10.00 Overcast FEW027 SCT044 OVC110 84.2 77 79% 94 29.94 0.0
Date Time (ast) Wind (mph) Vis. (mi.) Weather Sky Cond. Air Dwpt Max. Min. Relative Humidity Wind Chill (°F) Heat Index (°F) altimeter (in) sea level (mb) 1 hr 3 hr 6 hr
6 hour
Temperature (ºF) Pressure Precipitation (in)